SCP
0 0 0 0 0 0 0 0 1 1 0 0 0 0 0 0 0 0 0 0 0 0 0 0 0 0 0 0 0 0 0 0 0 0 0 0 0 0 0 0 0 0 0
0 0 0 0 0 0 1 1 1 1 0 0 0 0 0 0 0 0 0 0 0 0 0 0 0 0 0 0 0 0 0 0 0 0 0 0 0 0 0 0 0 0 0
0 0 0 1 1 1 1 1 1 1 0 0 0 0 0 0 0 0 0 0 0 0 0 0 0 0 0 0 0 0 0 0 0 0 0 0 0 0 0 0 0 0 0
0 0 1 1 1 0 0 1 1 1 1 0 0 0 0 0 0 0 0 0 0 0 0 0 0 0 0 0 0 0 0 0 0 0 0 0 0 0 0 0 0 0 0
0 0 1 1 0 0 0 0 1 1 1 1 0 0 0 0 0 0 0 0 0 0 0 0 0 0 0 0 0 0 0 0 0 0 0 0 0 0 0 0 0 0 0
0 0 0 0 0 0 0 0 1 1 1 1 1 0 0 0 0 0 0 0 0 0 0 0 0 0 0 0 0 0 0 0 0 0 0 0 0 0 0 0 0 0 0
0 0 0 1 1 1 0 1 1 1 1 1 1 1 0 0 0 0 0 0 0 0 0 0 0 0 0 0 0 0 0 0 0 0 0 0 0 0 0 0 0 0 0
0 0 0 1 1 1 1 1 1 1 1 1 1 1 0 0 0 0 0 0 0 0 0 0 0 0 0 0 0 0 0 0 0 0 0 0 0 0 0 0 0 0 0
0 0 0 1 1 1 1 1 1 1 1 1 1 1 1 0 0 0 0 0 0 0 0 0 0 0 0 0 0 0 0 0 0 0 0 0 0 0 0 0 0 0 0
0 0 1 1 1 1 1 1 1 1 1 1 1 1 1 1 1 1 1 0 0 0 0 0 0 0 0 0 0 0 0 0 0 0 0 0 0 0 0 0 0 0 0
1 1 1 1 1 1 1 1 1 1 1 1 1 1 1 1 1 1 1 1 1 0 0 0 0 0 0 0 0 0 0 0 0 0 0 0 0 0 0 0 0 0 0
1 1 1 1 1 1 1 1 1 1 1 1 1 1 1 1 1 1 1 1 1 1 1 1 1 0 0 0 0 0 0 0 0 0 0 0 0 0 0 0 0 0 0
1 1 1 1 1 1 1 1 1 1 1 1 1 1 1 1 1 1 1 1 1 1 1 1 1 0 0 0 0 0 0 0 0 0 0 0 0 0 0 0 0 0 0
1 1 1 1 1 1 1 1 1 1 1 1 1 1 1 1 1 1 1 1 1 1 1 1 1 0 0 0 0 0 0 0 0 0 0 0 0 0 0 0 0 0 0
1 1 1 1 1 1 1 1 1 1 1 1 1 1 1 1 1 1 1 1 1 1 1 1 1 0 0 0 0 0 0 0 0 0 0 0 0 0 0 0 0 0 0
1 1 1 1 1 1 1 1 1 1 1 1 1 1 1 1 1 1 1 1 1 1 1 1 0 0 0 0 0 0 0 0 0 0 0 0 0 0 0 0 0 0 0
1 1 1 1 1 1 1 1 1 1 1 1 1 1 1 1 1 1 1 1 1 1 0 0 0 0 0 0 0 0 0 0 0 0 0 0 0 0 0 0 0 0 0
1 1 1 1 1 1 1 1 1 1 1 1 1 1 1 1 1 1 1 1 1 1 0 0 0 0 0 0 0 0 0 0 0 0 0 0 0 0 0 0 0 0 0
1 1 1 1 2 2 2 1 1 1 1 1 1 1 1 1 1 1 1 1 1 1 0 0 0 0 0 0 0 0 0 0 0 0 0 0 0 0 0 0 0 0 0
1 1 1 2 2 2 2 2 1 1 1 1 1 1 1 1 1 1 1 1 1 1 0 0 0 0 0 0 0 0 0 0 0 0 0 0 0 0 0 0 0 0 0
1 2 2 2 2 2 2 2 1 1 1 1 1 1 1 1 1 1 1 1 1 1 0 0 0 0 0 0 0 0 0 0 0 0 0 0 0 0 0 0 0 0 0
2 2 2 2 2 2 2 1 1 1 1 1 1 1 1 1 1 1 1 1 1 0 0 0 0 0 0 0 0 0 0 0 0 0 0 0 0 0 0 0 0 0 0
2 2 2 2 2 1 1 1 1 1 1 1 1 1 1 0 0 1 1 1 0 0 0 0 0 0 0 0 0 0 0 0 0 0 0 0 0 0 0 0 0 0 0
2 2 2 2 1 1 1 1 1 1 1 1 1 1 0 0 0 0 0 0 0 0 0 0 0 0 0 0 0 0 0 0 0 0 0 0 0 0 0 0 0 0 0
2 2 1 1 1 1 1 1 1 1 1 1 0 0 0 0 0 0 0 0 0 0 0 0 0 0 0 0 0 0 0 0 0 0 0 0 0 0 0 0 0 0 0
1 1 1 1 1 1 1 1 1 1 1 0 0 0 0 0 0 0 0 0 0 0 0 0 0 0 0 0 0 0 0 0 0 0 0 0 0 0 0 0 0 0 0
Wind_Speed
10 10 10 10 10 10 10 10 9 8 7 5 5 5 4 4 4 4 5 5 5 4 4 4 3 4 3 3 4 4 4 4 3 3 4 4 5 4 4 4 4 4 4
10 10 11 11 11 11 11 10 10 10 9 6 4 4 3 4 4 4 4 5 5 5 5 5 4 4 3 4 4 4 4 3 3 3 4 3 3 4 4 3 3 4 3
11 12 12 12 12 12 12 10 10 10 9 8 6 5 4 5 5 5 4 5 6 6 5 5 5 4 5 4 4 4 5 4 3 3 3 4 3 1 2 3 3 3 2
12 12 12 12 12 12 11 11 10 10 9 9 8 7 6 5 4 4 3 4 5 6 5 5 5 5 5 4 5 4 4 5 4 3 3 4 4 4 2 3 2 2 2
12 12 12 12 12 11 11 10 10 10 10 9 8 8 7 5 4 4 4 4 4 5 5 5 4 4 4 4 5 4 5 4 4 3 3 4 3 5 4 4 2 1 1
11 11 12 11 11 11 10 10 10 10 9 9 9 8 7 6 5 5 4 4 3 4 5 5 4 4 4 4 5 5 5 5 4 4 4 3 3 3 4 4 4 2 1
10 11 12 12 11 11 11 10 10 10 10 9 8 8 7 7 7 6 5 5 4 3 4 4 4 4 4 4 5 5 5 5 5 4 4 3 4 3 4 4 4 3 1
9 10 11 11 11 12 11 11 10 9 9 9 8 7 7 6 5 6 5 4 4 3 3 4 4 4 4 4 4 4 4 3 4 4 4 3 3 3 3 4 3 3 2
7 9 10 10 10 10 11 11 10 9 8 8 7 6 6 6 5 4 4 4 3 3 3 3 3 3 3 3 3 3 3 2 3 3 3 3 3 3 3 3 3 3 3
6 7 7 8 9 9 9 9 9 8 7 7 6 5 5 5 4 3 3 3 2 2 2 3 2 2 2 2 3 2 2 2 1 1 2 2 2 2 2 3 2 2 2
5 6 6 7 8 8 8 8 8 7 6 6 5 5 4 4 4 3 3 3 2 2 2 2 2 2 1 1 1 1 1 1 1 0 0 1 1 1 1 1 1 0 1
6 6 7 8 8 8 7 7 7 7 6 5 5 4 4 3 3 3 3 2 2 2 2 2 2 1 1 1 1 1 1 1 1 1 0 0 1 1 1 1 0 1 1
7 7 8 8 7 7 7 6 6 6 6 6 5 5 4 3 3 2 2 2 2 2 1 1 2 1 1 1 1 1 1 1 1 1 1 1 1 1 1 1 0 1 1
7 7 7 7 7 6 6 6 6 6 6 6 6 5 4 3 3 3 2 2 2 1 1 1 1 1 1 1 1 1 1 1 2 2 2 2 2 1 1 1 1 1 2
7 7 7 7 7 7 6 6 6 6 6 6 6 5 4 4 3 3 3 3 2 2 2 2 2 2 1 1 1 2 2 2 2 2 3 3 5 6 4 2 2 1 1
7 7 7 7 6 7 6 6 6 6 6 6 6 6 5 5 4 4 4 4 4 4 4 3 3 3 3 5 4 2 3 2 3 3 4 5 5 6 7 8 8 5 2
6 7 7 7 6 6 6 7 7 7 7 6 6 6 5 5 5 5 5 5 5 5 4 4 4 4 5 5 4 2 3 4 4 4 4 4 5 4 5 7 7 8 8
6 7 7 7 7 7 7 7 7 7 7 6 6 5 5 5 6 6 5 5 5 5 5 5 5 5 5 5 3 2 4 5 5 5 5 5 5 5 4 6 6 7 7
6 6 7 8 8 8 8 8 8 8 7 6 6 5 5 6 6 6 6 5 6 6 5 5 5 6 5 5 3 2 6 6 6 6 6 6 6 6 4 5 6 7 7
6 7 8 9 8 8 9 9 8 8 7 6 6 6 6 6 6 6 6 6 6 6 6 6 6 6 6 6 5 3 5 6 6 6 8 10 8 7 6 6 6 6 6
7 8 8 8 8 9 9 8 8 7 7 7 7 7 6 6 7 7 6 6 6 6 6 7 6 6 6 6 6 6 3 4 5 5 6 7 8 8 8 5 6 4 2
9 9 9 8 8 9 9 9 8 8 8 8 8 7 7 6 6 7 6 6 6 7 6 6 6 5 5 6 7 8 7 5 6 5 6 7 8 9 8 6 5 2 0
8 8 9 9 8 8 8 9 9 9 9 9 8 8 7 6 6 6 6 6 5 4 5 5 5 5 5 6 8 8 8 7 6 7 9 8 6 7 7 6 3 1 2
7 7 9 9 8 8 8 9 9 9 9 9 8 7 7 7 6 4 4 4 3 4 4 4 4 5 4 4 4 5 6 7 7 7 8 7 5 4 5 4 3 3 4
7 7 7 8 8 8 8 9 9 9 9 9 8 7 7 7 6 5 4 3 4 3 2 3 3 4 4 4 4 2 4 4 5 5 5 4 4 4 4 4 3 3 3
7 7 7 8 8 8 8 8 9 9 9 8 7 6 6 6 6 7 6 11 8 9 8 7 4 6 7 7 6 6 7 5 2 2 4 4 3 3 3 3 3 3 3
Wind_Direction
186 185 190 193 188 188 189 192 195 188 195 201 205 199 204 213 210 208 202 214 220 210 223 245 212 235 242 250 254 256 245 250 260 263 262 242 231 233 238 243 253 242 236
186 184 189 191 192 192 193 196 199 196 201 202 213 217 223 224 222 223 202 220 222 221 218 229 238 230 241 245 252 255 270 265 249 266 275 259 215 208 221 226 233 250 245
190 186 189 191 193 194 197 201 202 200 205 204 209 209 206 225 217 214 208 218 223 226 235 228 242 243 249 248 251 248 252 264 256 253 273 285 289 299 192 214 230 243 258
195 190 190 191 194 195 195 199 201 203 205 207 217 218 221 228 228 230 218 215 221 230 229 232 239 247 251 248 249 241 251 256 261 247 247 270 301 290 273 218 215 225 245
197 192 192 191 194 194 192 193 198 202 204 210 215 219 228 232 232 231 223 229 218 226 233 232 236 240 248 252 263 263 256 254 257 259 253 248 250 254 271 280 274 242 255
194 190 190 187 190 192 192 191 191 198 201 205 212 219 231 237 241 236 231 226 221 223 226 233 236 241 246 245 251 252 245 253 259 260 261 259 260 260 258 266 274 273 280
191 188 189 187 187 188 190 191 188 195 197 202 210 214 224 232 236 237 230 234 234 227 221 230 233 242 245 247 249 246 253 243 243 248 259 263 261 271 268 268 272 278 276
188 189 191 190 187 186 187 188 189 195 197 202 206 212 215 224 231 229 243 233 241 239 229 227 232 239 245 243 239 245 243 240 243 248 254 263 271 267 263 263 267 266 260
183 188 188 184 182 183 185 187 186 190 197 202 203 210 216 227 235 231 235 243 238 237 229 228 230 236 241 245 237 232 240 237 241 250 245 252 260 258 262 261 254 258 266
165 174 175 172 173 179 179 178 181 187 192 194 201 201 205 209 217 227 226 240 242 236 232 223 226 230 226 223 230 224 225 227 235 256 266 257 264 264 253 255 249 247 248
145 151 155 157 162 165 164 167 174 178 181 188 191 198 196 196 200 211 216 218 223 218 222 218 215 219 213 198 197 211 195 186 191 228 252 266 298 296 293 279 266 182 179
130 136 140 142 146 150 153 157 164 167 169 173 176 178 176 176 182 189 198 198 195 203 204 191 191 201 189 180 185 192 185 182 186 163 110 26 59 52 336 336 24 135 166
125 126 129 134 141 145 147 149 152 153 156 157 158 156 158 161 164 169 176 179 180 182 183 171 167 170 175 175 169 157 154 166 138 98 93 74 72 72 57 29 92 149 156
128 127 131 135 139 141 145 146 144 145 148 146 144 140 145 145 144 145 143 142 144 141 127 123 130 130 133 123 126 123 119 116 102 82 71 61 60 61 98 90 81 101 121
137 138 138 135 138 140 141 141 138 138 139 138 134 132 132 131 135 131 122 110 108 112 107 105 97 94 99 62 68 106 106 110 107 90 83 73 66 51 44 48 62 97 117
150 148 145 141 142 142 140 137 135 136 138 136 132 129 128 125 123 118 109 104 98 93 89 88 87 79 68 52 43 67 98 99 103 99 97 98 89 84 74 62 54 45 59
158 157 155 149 145 139 135 136 137 137 134 131 130 130 128 122 116 113 111 112 105 96 87 82 83 81 64 57 59 60 101 92 83 84 88 85 85 90 93 91 86 67 53
161 157 153 147 142 138 135 135 136 135 133 133 131 129 128 124 121 116 112 107 104 101 95 87 84 83 66 51 63 85 99 88 84 82 81 83 77 64 75 88 84 78 62
155 150 150 146 141 139 138 137 135 134 133 132 132 131 129 125 123 119 111 106 104 101 97 90 86 86 75 48 40 77 100 91 83 77 70 77 84 54 59 92 90 86 86
144 143 142 142 141 140 142 140 135 133 131 130 127 124 125 125 121 116 113 109 106 104 101 91 85 83 79 53 29 19 104 100 97 89 82 69 69 60 47 85 90 86 79
142 143 142 140 140 143 143 138 133 130 127 124 122 119 119 121 119 116 113 113 110 105 100 98 92 83 75 70 42 22 82 102 100 94 87 76 65 64 51 60 78 76 81
142 142 139 136 140 146 144 137 132 127 125 123 120 117 118 120 120 117 113 114 116 116 112 107 102 95 86 66 62 51 45 46 93 90 91 91 84 77 65 66 64 54 39
141 141 139 137 140 148 146 138 133 132 130 127 121 119 118 113 117 120 123 127 130 128 125 125 119 110 104 93 79 73 64 54 79 83 86 99 112 117 97 82 65 77 84
142 143 143 143 142 144 142 135 137 138 135 130 125 125 123 118 110 111 117 119 123 123 122 121 120 116 114 112 115 116 111 109 107 109 114 117 100 99 100 120 109 76 58
141 146 148 145 143 141 139 137 139 141 136 134 133 132 126 118 111 94 63 80 76 62 96 114 119 125 123 89 60 91 115 118 113 131 137 128 121 111 100 93 83 83 92
142 145 147 144 141 140 140 141 144 146 144 144 145 143 139 133 132 124 103 54 60 65 57 48 58 85 89 103 93 82 80 83 121 174 123 114 108 103 101 102 101 91 76